Tiempo atmosférico en la estación meteorológica de Autilla del Pino, Palencia (874 m.)



Fecha
DESCASC
Temp. máxima en grados centígrados (hora)
DESCASC
Temp. mínima en grados centígrados (hora)
DESCASC
Temp. media en grados centígrados
DESCASC
Racha de viento máxima en m/sg (hora)
DESCASC
Velocidad máxima media en intervalos de 10 minutos(hora)
DESCASC
Precipitaciones diarias en mm
DESCASC
Precipitaciones de 00:00 a 06:00 en mm
DESCASC
Precipitaciones de 06:00 a 12:00 en mm
DESCASC
Precipitaciones de 12:00 a 18:00 en mm
DESCASC
Precipitaciones de 18:00 a 24:00 en mm
DESCASC
24-01-2021 8.4 (15:50) 2.1 (09:10) 5.2 17.22 (00:10) 12.78 (00:10) 0 0 0 0 0
23-01-2021 9.5 (20:00) 1.5 (00:50) 5.5 27.22 (07:50) 14.72 (19:20) 0.7 0 0 0.7 0
22-01-2021 7.9 (03:20) 1.8 (23:20) 4.9 30.83 (03:30) 22.22 (03:30) 1.1 1 0.1 0 0
21-01-2021 9.5 (16:00) 5.2 (00:00) 7.3 18.89 (16:10) 14.44 (13:40) 0 0 0 0 0
20-01-2021 7.6 (15:20) -2.2 (-00:0) 2.7 15.83 (18:10) 11.67 (19:00) 0.8 0.6 0.2 0 0
19-01-2021 7.4 (15:20) -5.9 (-00:0) 0.8 5.83 (13:00) 4.72 (12:50) 0 0 0 0 0
18-01-2021 3.9 (14:50) -5.9 (-00:0) -1 4.44 (21:00) 3.33 (01:40) 0 0 0 0 0
17-01-2021 0.4 (17:30) -8 (-00:0) -3.8 6.67 (23:40) 2.5 (21:10) 0 0 0 0 0
16-01-2021 -1.2 (17:20) -8.4 (-00:0) -4.8 1.39 (14:30) 0.56 (14:30) 0 0 0 0 0
15-01-2021 -1.4 (16:00) -8.8 (-00:0) -5.1 2.5 (01:10) 2.22 (01:10) 0 0 0 0 0
14-01-2021 -0.5 (16:50) -9.1 (08:30) -4.8 3.61 (11:00) 2.78 (00:10) 0 0 0 0 0
13-01-2021 3.6 (13:20) -6.4 (-00:0) -1.4 3.61 (13:50) 2.78 (23:59) 0 0 0 0 0
12-01-2021 3.4 (16:00) -6.8 (-00:0) -1.7 8.33 (21:50) 6.11 (00:20) 0 0 0 0 0
11-01-2021 2.7 (14:10) -2.6 (-00:0) 0.1 14.17 (18:10) 10.28 (18:10) 0 0 0 0 0
10-01-2021 0.7 (15:00) -3 (00:10) -1.2 18.33 (23:10) 10.28 (16:40) 0 0 0 0 0
09-01-2021 -2.2 (15:50) -4.3 (-00:0) -3.3 15.56 (05:30) 10.83 (08:10) 0 0 0 0 0
08-01-2021 1.2 (14:10) -6 (-00:0) -2.4 13.33 (03:50) 9.17 (04:20) 0 0 0 0 0
07-01-2021 3.4 (15:10) -7.6 (-00:0) -2.1 7.22 (22:30) 5.83 (22:10) 0 0 0 0 0
06-01-2021 5.2 (16:20) -5.3 (-00:0) -0.1 3.89 (16:40) 2.78 (23:40) 0 0 0 0 0
05-01-2021 3.3 (16:30) -7.5 (-00:0) -2.1 9.44 (02:00) 4.17 (03:50) 0 0 0 0 0
04-01-2021 3.6 (15:50) -4.9 (-00:0) -0.7 9.44 (10:40) 6.94 (10:50) 0 0 0 0 0
03-01-2021 4.1 (15:20) -4.7 (-00:0) -0.3 11.94 (16:00) 8.61 (16:10) 0 0 0 0 0
02-01-2021 3.3 (15:20) -6.8 (-00:0) -1.8 9.72 (18:30) 6.67 (04:10) 0 0 0 0 0
01-01-2021 4.2 (16:00) -4.2 (-00:0) 0 14.17 (15:50) 10 (14:50) 0 0 0 0 0
31-12-2020 5.5 (15:30) -1 (-00:0) 2.3 22.5 (11:20) 11.94 (13:10) 0.2 0 0.2 0 0
30-12-2020 4.3 (14:20) -2.8 (-00:0) 0.8 10.83 (01:40) 7.78 (14:40) 0 0 0 0 0
29-12-2020 5 (14:30) -1.8 (-00:0) 1.6 26.67 (00:10) 10.83 (00:30) 0 0 0 0 0
28-12-2020 6 (14:50) -0.5 (-00:0) 2.8 23.33 (00:20) 17.5 (00:10) 2.1 2.1 0 0 0
27-12-2020 4.7 (23:50) -4.5 (-00:0) 0.1 26.39 (23:50) 18.61 (23:50) 0.7 0 0 0 0.7
26-12-2020 4.7 (15:40) -4.8 (-00:0) -0.1 5 (16:30) 3.61 (23:30) 0 0 0 0 0

Gráficas

Temp. máximas Temp. mínimas Temp. medias Precipitaciones Rachas de viento máximas Velocidades máximas media en intervalos de 10 minutos

Datos horarios

Fecha y hora oficial Temperatura (ºC) Velocidad del viento (km/h) Dirección del viento Racha (km/h) Dirección de racha Precipitación (mm) Presión (hPa) Tendencia (hPa) Humedad (%)
2021-01-24 23:00:00 5.6 27 Oeste 38 Oeste 0 -- -- 85
2021-01-24 22:00:00 5.8 27 Oeste 41 Oeste 0 -- -- 82
2021-01-24 21:00:00 5.8 32 Oeste 47 Oeste 0 -- -- 80
2021-01-24 20:00:00 5.9 27 Oeste 42 Oeste 0 -- -- 78
2021-01-24 19:00:00 5.8 26 Oeste 36 Oeste 0 -- -- 80
2021-01-24 18:00:00 6.1 30 Oeste 44 Oeste 0 -- -- 78
2021-01-24 17:00:00 6.6 34 Oeste 47 Oeste 0 -- -- 73
2021-01-24 16:00:00 7.8 36 Oeste 50 Oeste 0 -- -- 65
2021-01-24 15:00:00 7.4 37 Oeste 49 Oeste 0 -- -- 71
2021-01-24 14:00:00 7 36 Oeste 47 Oeste 0 -- -- 74
2021-01-24 13:00:00 6.6 34 Oeste 46 Oeste 0 -- -- 75
2021-01-24 12:00:00 5.7 29 Oeste 39 Oeste 0 -- -- 83
2021-01-24 11:00:00 4.8 28 Oeste 37 Oeste 0 -- -- 83
2021-01-24 10:00:00 3.8 22 Oeste 31 Oeste 0 -- -- 86
2021-01-24 09:00:00 2.3 26 Oeste 37 Oeste 0 -- -- 90
2021-01-24 08:00:00 2.5 26 Oeste 37 Oeste 0 -- -- 91
2021-01-24 07:00:00 3.2 26 Oeste 40 Oeste 0 -- -- 90
2021-01-24 06:00:00 3.8 30 Oeste 44 Oeste 0 -- -- 91
2021-01-24 05:00:00 4.4 33 Oeste 53 Oeste 0 -- -- 91
2021-01-24 04:00:00 5.1 41 Oeste 55 Oeste 0 -- -- 89
2021-01-24 03:00:00 5.1 41 Oeste 59 Oeste 0 -- -- 89
2021-01-24 02:00:00 4.9 41 Oeste 53 Oeste 0 -- -- 89
2021-01-24 01:00:00 5.2 42 Oeste 62 Oeste 0 -- -- 88
2021-01-24 00:00:00 5.3 45 Oeste 60 Oeste 0 -- -- 85
2021-01-23 23:00:00 5.5 41 Oeste 64 Oeste 0 -- -- 82
2021-01-23 22:00:00 6.6 45 Oeste 64 Oeste 0 -- -- 71
2021-01-23 21:00:00 9.1 49 Oeste 70 Oeste 0 -- -- 85
2021-01-23 20:00:00 9.4 51 Oeste 71 Oeste 0 -- -- 94
2021-01-23 19:00:00 8.8 53 Oeste 67 Oeste 0 -- -- 95
2021-01-23 18:00:00 8.3 48 Oeste 63 Oeste 0.1 -- -- 95
2021-01-23 17:00:00 6.9 35 Oeste 57 Sudoeste 0 -- -- 95
2021-01-23 16:00:00 6.5 42 Sudoeste 62 Sudoeste 0.4 -- -- 95
2021-01-23 15:00:00 6.2 46 Oeste 69 Oeste 0 -- -- 94
2021-01-23 14:00:00 5.2 45 Sudoeste 60 Sudoeste 0.1 -- -- 95
2021-01-23 13:00:00 4.9 43 Oeste 66 Sudoeste 0.1 -- -- 92
2021-01-23 12:00:00 4.5 35 Sudoeste 51 Sudoeste 0 -- -- 94
2021-01-23 11:00:00 4.3 39 Oeste 64 Oeste 0 -- -- 88
2021-01-23 10:00:00 3.9 49 Oeste 63 Sudoeste 0 -- -- 89
2021-01-23 09:00:00 3.4 39 Oeste 55 Oeste 0 -- -- 95
2021-01-23 08:00:00 2.9 39 Sudoeste 98 Oeste 0 -- -- 91
2021-01-23 07:00:00 3 44 Oeste 57 Sudoeste 0 -- -- 90
2021-01-23 06:00:00 2.7 40 Oeste 58 Oeste 0 -- -- 89
2021-01-23 05:00:00 2 40 Oeste 54 Oeste 0 -- -- 91
2021-01-23 04:00:00 2.3 39 Oeste 50 Oeste 0 -- -- 92
2021-01-23 03:00:00 2.1 37 Sudoeste 50 Oeste 0 -- -- 93
2021-01-23 02:00:00 1.8 33 Sudoeste 52 Oeste 0 -- -- 92
2021-01-23 01:00:00 1.7 32 Sudoeste 43 Oeste 0 -- -- 92
2021-01-23 00:00:00 2 37 Oeste 49 Oeste 0 -- -- 91
2021-01-22 23:00:00 2.6 34 Oeste 46 Oeste 0 -- -- 88
2021-01-22 22:00:00 2.3 35 Oeste 46 Oeste 0 -- -- 91
2021-01-22 21:00:00 2.3 29 Oeste 43 Oeste 0 -- -- 90
2021-01-22 20:00:00 3.1 29 Oeste 48 Oeste 0 -- -- 82
2021-01-22 19:00:00 4.5 30 Oeste 43 Oeste 0 -- -- 71
2021-01-22 18:00:00 4.4 16 Noroeste 33 Noroeste 0 -- -- 68
2021-01-22 17:00:00 6.7 22 Noroeste 41 Noroeste 0 -- -- 60
2021-01-22 16:00:00 6.9 28 Noroeste 41 Noroeste 0 -- -- 61
2021-01-22 15:00:00 6.2 28 Noroeste 39 Oeste 0 -- -- 65
2021-01-22 14:00:00 5.8 27 Noroeste 52 Noroeste 0 -- -- 68
2021-01-22 13:00:00 6.3 32 Oeste 52 Oeste 0 -- -- 77
2021-01-22 12:00:00 5 36 Oeste 92 Oeste 0 -- -- 83
2021-01-22 11:00:00 3.9 44 Oeste 62 Oeste 0 -- -- 86
2021-01-22 10:00:00 3 48 Oeste 66 Oeste 0 -- -- 91
2021-01-22 09:00:00 2.4 43 Oeste 62 Oeste 0.1 -- -- 94
2021-01-22 08:00:00 2.8 44 Oeste 70 Oeste 0 -- -- 90
2021-01-22 07:00:00 2.4 50 Oeste 72 Oeste 0 -- -- 88
2021-01-22 06:00:00 3.7 50 Oeste 78 Oeste 0.2 -- -- 86
2021-01-22 05:00:00 5.4 49 Oeste 79 Oeste 0.1 -- -- 88
2021-01-22 04:00:00 5.3 48 Oeste 111 Sudoeste 0.7 -- -- 85
2021-01-22 03:00:00 7.2 49 Sudoeste 72 Sudoeste 0 -- -- 85
2021-01-22 02:00:00 6.7 41 Sudoeste 63 Sudoeste 0 -- -- 88
2021-01-22 01:00:00 7.3 45 Sudoeste 59 Sudoeste 0 -- -- 88
2021-01-22 00:00:00 6.9 31 Sudoeste 46 Sudoeste 0 -- -- 89
2021-01-21 23:00:00 7 33 Sudoeste 50 Sudoeste 0 -- -- 89
2021-01-21 22:00:00 6.8 39 Sudoeste 57 Oeste 0 -- -- 89
2021-01-21 21:00:00 7.3 44 Oeste 58 Sudoeste 0 -- -- 88
2021-01-21 20:00:00 7.5 40 Oeste 56 Oeste 0 -- -- 88
2021-01-21 19:00:00 7.3 38 Oeste 52 Oeste 0 -- -- 88
2021-01-21 18:00:00 8.2 44 Oeste 63 Oeste 0 -- -- 86
2021-01-21 17:00:00 8.8 48 Oeste 68 Sudoeste 0 -- -- 87
2021-01-21 16:00:00 9.5 50 Oeste 67 Oeste 0 -- -- 87
2021-01-21 15:00:00 7.7 43 Oeste 62 Sudoeste 0 -- -- 93
2021-01-21 14:00:00 7.3 41 Sudoeste 67 Sudoeste 0 -- -- 92
2021-01-21 13:00:00 7.4 45 Sudoeste 65 Sudoeste 0 -- -- 86
2021-01-21 12:00:00 7.3 45 Sudoeste 58 Sudoeste 0 -- -- 86
2021-01-21 11:00:00 6.7 36 Sudoeste 55 Sudoeste 0 -- -- 89
2021-01-21 10:00:00 6.1 40 Sudoeste 53 Oeste 0 -- -- 91
2021-01-21 09:00:00 5.4 30 Sudoeste 45 Oeste 0 -- -- 92
2021-01-21 08:00:00 5.5 31 Sudoeste 45 Sudoeste 0 -- -- 92
2021-01-21 07:00:00 5.9 33 Oeste 46 Sudoeste 0 -- -- 88
2021-01-21 06:00:00 5.7 27 Sudoeste 50 Oeste 0 -- -- 91
2021-01-21 05:00:00 5.7 35 Oeste 49 Oeste 0 -- -- 91
2021-01-21 04:00:00 5.9 33 Oeste 49 Oeste 0 -- -- 91
2021-01-21 03:00:00 6 32 Oeste 48 Oeste 0 -- -- 92
2021-01-21 02:00:00 5.9 32 Sudoeste 50 Sudoeste 0 -- -- 93
2021-01-21 01:00:00 6 34 Sudoeste 47 Oeste 0 -- -- 92
2021-01-21 00:00:00 6 31 Sudoeste 48 Sudoeste 0 -- -- 91
2021-01-20 23:00:00 5.8 36 Sudoeste 47 Oeste 0 -- -- 91
2021-01-20 22:00:00 5.9 34 Sudoeste 45 Sudoeste 0 -- -- 91
2021-01-20 21:00:00 6 35 Sudoeste 46 Sudoeste 0 -- -- 92
2021-01-20 20:00:00 5.8 25 Sudoeste 50 Oeste 0 -- -- 92
2021-01-20 19:00:00 6.4 42 Oeste 57 Sudoeste 0 -- -- 90
2021-01-20 18:00:00 6.4 37 Sudoeste 50 Sudoeste 0 -- -- 92
2021-01-20 17:00:00 6.6 34 Sudoeste 53 Sudoeste 0 -- -- 92
2021-01-20 16:00:00 6.9 37 Sudoeste 51 Sudoeste 0 -- -- 86
2021-01-20 15:00:00 7.4 37 Sudoeste 52 Sudoeste 0 -- -- 78
2021-01-20 14:00:00 6.9 35 Sudoeste 51 Sudoeste 0 -- -- 79
2021-01-20 13:00:00 6.1 39 Sudoeste 52 Sudoeste 0 -- -- 75
2021-01-20 12:00:00 5.3 31 Sur 42 Sudoeste 0 -- -- 78
2021-01-20 11:00:00 3.5 27 Sur 37 Sudoeste 0 -- -- 86
2021-01-20 10:00:00 2.8 32 Sudoeste 49 Sudoeste 0 -- -- 88
2021-01-20 09:00:00 2.6 31 Sur 44 Sur 0 -- -- 87
2021-01-20 08:00:00 2 30 Sur 44 Sur 0 -- -- 88
2021-01-20 07:00:00 1 26 Sur 39 Sur 0.2 -- -- 92
2021-01-20 06:00:00 0.5 22 Sur 31 Sur 0.6 -- -- 93
2021-01-20 05:00:00 0 17 Sur 30 Sur 0 -- -- 94
2021-01-20 04:00:00 -1.4 13 Sur 17 Sur 0 -- -- 97
2021-01-20 03:00:00 -0.9 5 Sur 13 Sur 0 -- -- 96
2021-01-20 02:00:00 -0.7 12 Sur 16 Sur 0 -- -- 95
2021-01-20 01:00:00 -1.1 13 Sur 15 Sudoeste 0 -- -- 94
2021-01-20 00:00:00 -0.7 14 Sudoeste 18 Sudoeste 0 -- -- 93
2021-01-19 23:00:00 -0.3 13 Sudoeste 19 Sudoeste 0 -- -- 90
2021-01-19 22:00:00 0.1 17 Sudoeste 20 Sudoeste 0 -- -- 85
2021-01-19 21:00:00 2 10 Sur 15 Sur 0 -- -- 77
2021-01-19 20:00:00 3.4 11 Sur 15 Sur 0 -- -- 71
2021-01-19 19:00:00 1.7 13 Sudoeste 14 Sudoeste 0 -- -- 79
2021-01-19 18:00:00 4.5 3 Sur 5 Sur 0 -- -- 78
2021-01-19 17:00:00 6.1 2 Sur 11 Noroeste 0 -- -- 71
2021-01-19 16:00:00 5.8 5 Noroeste 10 Noroeste 0 -- -- 73
2021-01-19 15:00:00 6 5 Noroeste 19 Sudoeste 0 -- -- 69
2021-01-19 14:00:00 7.3 14 Sudoeste 20 Sudoeste 0 -- -- 55
2021-01-19 13:00:00 5.3 17 Sudoeste 21 Sudoeste 0 -- -- 63
2021-01-19 12:00:00 3 9 Sur 14 Sur 0 -- -- 86
2021-01-19 11:00:00 0.2 12 Sur 14 Sur 0 -- -- 97
2021-01-19 10:00:00 -2.4 10 Sur 12 Sur 0 -- -- 97
2021-01-19 09:00:00 -3.6 7 Sur 12 Sur 0 -- -- 97
2021-01-19 08:00:00 -4.3 6 Sudeste 9 Este 0 -- -- 97
2021-01-19 07:00:00 -4.9 9 Este 11 Este 0 -- -- 97
2021-01-19 06:00:00 -5.4 9 Este 11 Este 0 -- -- 97
2021-01-19 05:00:00 -5 4 Este 10 Sudeste 0 -- -- 97
2021-01-19 04:00:00 -4.3 9 Sudeste 12 Este 0 -- -- 97
2021-01-19 03:00:00 -4.6 10 Sudeste 11 Sudeste 0 -- -- 97
2021-01-19 02:00:00 -4.1 9 Este 14 Sudeste 0 -- -- 97
2021-01-19 01:00:00 -3.8 10 Este 13 Este 0 -- -- 97
2021-01-19 00:00:00 -4 9 Este 11 Este 0 -- -- 94
2021-01-18 23:00:00 1.3 7 Sur 10 Sur 0 -- -- 88
2021-01-18 22:00:00 0.3 9 Sur 15 Sur 0 -- -- 89
2021-01-18 21:00:00 1.1 12 Sur 16 Sur 0 -- -- 81
2021-01-18 20:00:00 1.2 10 Sur 12 Sur 0 -- -- 77
2021-01-18 19:00:00 0.5 6 Sur 11 Sur 0 -- -- 93
2021-01-18 18:00:00 0.5 7 Sudeste 8 Sudeste 0 -- -- 97
2021-01-18 17:00:00 1.4 6 Este 10 Sudeste 0 -- -- 95
2021-01-18 16:00:00 3.4 8 Este 10 Sudeste 0 -- -- 94
2021-01-18 15:00:00 3.6 5 Este 9 Este 0 -- -- 99
2021-01-18 14:00:00 2.7 0 Calma 8 Sur 0 -- -- 99
2021-01-18 13:00:00 0.4 4 Sur 13 Sudeste 0 -- -- 99
2021-01-18 12:00:00 -0.3 9 Sudeste 12 Sudeste 0 -- -- 99
2021-01-18 11:00:00 -0.8 9 Sudeste 12 Sudeste 0 -- -- 99
2021-01-18 10:00:00 -1.8 6 Sudeste 12 Sudeste 0 -- -- 98
2021-01-18 09:00:00 -3.6 10 Este 13 Este 0 -- -- 97
2021-01-18 08:00:00 -3.8 8 Sudeste 10 Sudeste 0 -- -- 97
2021-01-18 07:00:00 -4.6 5 Nordeste 9 Nordeste 0 -- -- 97
2021-01-18 06:00:00 -5.4 5 Nordeste 11 Norte 0 -- -- 97
2021-01-18 05:00:00 -4.3 0 Calma 5 Norte 0 -- -- 98
2021-01-18 04:00:00 -4.2 0 Calma 10 Sur 0 -- -- 98
2021-01-18 03:00:00 -1.9 5 Sudeste 8 Sudeste 0 -- -- 99
2021-01-18 02:00:00 -2.3 8 Sudeste 14 Este 0 -- -- 98
2021-01-18 01:00:00 -5 9 Sudeste 12 Sudeste 0 -- -- 98
2021-01-18 00:00:00 -5.2 7 Este 24 Este 0 -- -- 98
2021-01-17 23:00:00 -5 7 Este 9 Este 0 -- -- 98
2021-01-17 22:00:00 -3.5 0 Calma 10 Sur 0 -- -- 99
2021-01-17 21:00:00 -3.4 7 Sur 10 Sur 0 -- -- 99
2021-01-17 20:00:00 -2.7 5 Sudeste 10 Norte 0 -- -- 99
2021-01-17 19:00:00 -3.1 7 Norte 11 Norte 0 -- -- 99
2021-01-17 18:00:00 -1.8 3 Norte 7 Este 0 -- -- 99
2021-01-17 17:00:00 0.3 2 Sudeste 6 Nordeste 0 -- -- 99
2021-01-17 16:00:00 -0.5 5 Nordeste 10 Norte 0 -- -- 99
2021-01-17 15:00:00 -1.2 0 Calma 7 Nordeste 0 -- -- 99
2021-01-17 14:00:00 -1.9 0 Calma 2 Este 0 -- -- 98
2021-01-17 13:00:00 -3 0 Calma 0 Calma 0 -- -- 97
2021-01-17 12:00:00 -4.5 0 Calma 0 Calma 0 -- -- 96
2021-01-17 11:00:00 -5.4 0 Calma 0 Calma 0 -- -- 96
2021-01-17 10:00:00 -7 0 Calma 0 Calma 0 -- -- 96
2021-01-17 09:00:00 -7.9 0 Calma 0 Calma 0 -- -- 96
2021-01-17 08:00:00 -6.9 0 Calma 0 Calma 0 -- -- 97
2021-01-17 07:00:00 -6.2 0 Calma 2 Sudeste 0 -- -- 97
2021-01-17 06:00:00 -6.1 0 Calma 2 Sudeste 0 -- -- 97
2021-01-17 05:00:00 -6.6 0 Calma 0 Calma 0 -- -- 97
2021-01-17 04:00:00 -6.2 0 Calma 3 Sur 0 -- -- 97
2021-01-17 03:00:00 -6.1 0 Calma 0 Calma 0 -- -- 97
2021-01-17 02:00:00 -5.9 0 Calma 0 Calma 0 -- -- 97
2021-01-17 01:00:00 -5.4 0 Calma 0 Calma 0 -- -- 98
2021-01-17 00:00:00 -5.1 0 Calma 2 Sudeste 0 -- -- 98
2021-01-16 23:00:00 -4.6 0 Calma 3 Sudeste 0 -- -- 99
2021-01-16 22:00:00 -4 0 Calma 3 Sudeste 0 -- -- 99
2021-01-16 21:00:00 -3.5 2 Sudeste 3 Sudeste 0 -- -- 99
2021-01-16 20:00:00 -3.5 0 Calma 0 Calma 0 -- -- 99
2021-01-16 19:00:00 -3.1 0 Calma 0 Calma 0 -- -- 99
2021-01-16 18:00:00 -2.1 0 Calma 0 Calma 0 -- -- 99
2021-01-16 17:00:00 -1.5 0 Calma 3 Este 0 -- -- 99
2021-01-16 16:00:00 -1.7 0 Calma 3 Sudeste 0 -- -- 99
2021-01-16 15:00:00 -1.8 0 Calma 5 Sudoeste 0 -- -- 99
2021-01-16 14:00:00 -1.5 0 Calma 0 Calma 0 -- -- 98
2021-01-16 13:00:00 -3.3 0 Calma 0 Calma 0 -- -- 97
2021-01-16 12:00:00 -4.5 0 Calma 0 Calma 0 -- -- 96
2021-01-16 11:00:00 -5.9 0 Calma 0 Calma 0 -- -- 95
2021-01-16 10:00:00 -7.8 0 Calma 0 Calma 0 -- -- 95
2021-01-16 09:00:00 -8.3 0 Calma 0 Calma 0 -- -- 95
2021-01-16 08:00:00 -8.2 0 Calma 0 Calma 0 -- -- 96
2021-01-16 07:00:00 -7.6 0 Calma 0 Calma 0 -- -- 96
2021-01-16 06:00:00 -7.5 0 Calma 0 Calma 0 -- -- 96
2021-01-16 05:00:00 -7 0 Calma 0 Calma 0 -- -- 97
2021-01-16 04:00:00 -6.8 0 Calma 0 Calma 0 -- -- 97
2021-01-16 03:00:00 -5.7 0 Calma 0 Calma 0 -- -- 97
2021-01-16 02:00:00 -5.3 0 Calma 0 Calma 0 -- -- 98
2021-01-16 01:00:00 -5.1 0 Calma 0 Calma 0 -- -- 98
2021-01-16 00:00:00 -5.1 0 Calma 4 Noroeste 0 -- -- 98
2021-01-15 23:00:00 -4.6 3 Noroeste 7 Noroeste 0 -- -- 98
2021-01-15 22:00:00 -4.4 5 Noroeste 8 Noroeste 0 -- -- 98
2021-01-15 21:00:00 -4.2 6 Noroeste 8 Noroeste 0 -- -- 98
2021-01-15 20:00:00 -4.1 5 Noroeste 8 Norte 0 -- -- 98
2021-01-15 19:00:00 -3.8 5 Noroeste 6 Noroeste 0 -- -- 99
2021-01-15 18:00:00 -3.3 4 Noroeste 7 Noroeste 0 -- -- 99
2021-01-15 17:00:00 -2.6 5 Oeste 6 Oeste 0 -- -- 99
2021-01-15 16:00:00 -1.8 3 Noroeste 5 Noroeste 0 -- -- 99
2021-01-15 15:00:00 -2.3 4 Noroeste 6 Noroeste 0 -- -- 98
2021-01-15 14:00:00 -3.4 3 Noroeste 8 Oeste 0 -- -- 97
2021-01-15 13:00:00 -3.9 3 Noroeste 7 Oeste 0 -- -- 97
2021-01-15 12:00:00 -4.7 4 Oeste 7 Oeste 0 -- -- 96
2021-01-15 11:00:00 -5.3 2 Oeste 6 Oeste 0 -- -- 96
2021-01-15 10:00:00 -6.9 0 Calma 5 Sudeste 0 -- -- 95
2021-01-15 09:00:00 -8.2 2 Sudoeste 8 Sudoeste 0 -- -- 95
2021-01-15 08:00:00 -8.4 5 Oeste 7 Oeste 0 -- -- 95
2021-01-15 07:00:00 -8 4 Sudoeste 6 Sudeste 0 -- -- 96
2021-01-15 06:00:00 -6.8 0 Calma 6 Nordeste 0 -- -- 96
2021-01-15 05:00:00 -6.9 5 Nordeste 7 Norte 0 -- -- 96
2021-01-15 04:00:00 -8.3 2 Norte 7 Este 0 -- -- 96
2021-01-15 03:00:00 -7.4 0 Calma 6 Este 0 -- -- 97
2021-01-15 02:00:00 -7.2 2 Sudoeste 9 Sudoeste 0 -- -- 97
2021-01-15 01:00:00 -7 7 Sudoeste 8 Sudoeste 0 -- -- 96
2021-01-15 00:00:00 -5.9 7 Sudeste 9 Este 0 -- -- 97
2021-01-14 23:00:00 -6.8 4 Este 9 Este 0 -- -- 97
2021-01-14 22:00:00 -6.6 5 Noroeste 8 Noroeste 0 -- -- 97
2021-01-14 21:00:00 -5.6 3 Oeste 6 Oeste 0 -- -- 98
2021-01-14 20:00:00 -5.1 3 Oeste 6 Noroeste 0 -- -- 98
2021-01-14 19:00:00 -4.2 0 Calma 6 Oeste 0 -- -- 99
2021-01-14 18:00:00 -3.1 5 Sudoeste 8 Noroeste 0 -- -- 99
2021-01-14 17:00:00 -1 6 Sudoeste 9 Sudoeste 0 -- -- 99
2021-01-14 16:00:00 -2.6 5 Sur 9 Sur 0 -- -- 99
2021-01-14 15:00:00 -1.8 3 Nordeste 9 Noroeste 0 -- -- 99
2021-01-14 14:00:00 -1.8 3 Este 9 Este 0 -- -- 99
2021-01-14 13:00:00 -1.6 2 Noroeste 6 Noroeste 0 -- -- 98
2021-01-14 12:00:00 -3.2 3 Este 8 Noroeste 0 -- -- 97
2021-01-14 11:00:00 -5.3 3 Sudeste 13 Sur 0 -- -- 97
2021-01-14 10:00:00 -7.7 2 Sur 7 Noroeste 0 -- -- 97
2021-01-14 09:00:00 -8.4 6 Sur 9 Sur 0 -- -- 96
2021-01-14 08:00:00 -8.6 3 Sur 7 Sur 0 -- -- 97
2021-01-14 07:00:00 -6.9 5 Sur 6 Sur 0 -- -- 99
2021-01-14 06:00:00 -5.2 5 Sudeste 7 Sudeste 0 -- -- 99
2021-01-14 05:00:00 -5.1 6 Este 7 Este 0 -- -- 99
2021-01-14 04:00:00 -3.3 5 Nordeste 6 Nordeste 0 -- -- 99
2021-01-14 03:00:00 -3.2 3 Este 6 Nordeste 0 -- -- 99
2021-01-14 02:00:00 -2.5 3 Nordeste 4 Este 0 -- -- 99
2021-01-14 01:00:00 -3.5 4 Este 11 Nordeste 0 -- -- 99
2021-01-14 00:00:00 -4.9 10 Nordeste 12 Nordeste 0 -- -- 99
2021-01-13 23:00:00 -3.7 7 Nordeste 8 Nordeste 0 -- -- 99
2021-01-13 22:00:00 -2.4 4 Norte 5 Norte 0 -- -- 99
2021-01-13 21:00:00 -1.5 3 Norte 6 Nordeste 0 -- -- 98
2021-01-13 20:00:00 -1.9 6 Nordeste 8 Nordeste 0 -- -- 99
2021-01-13 19:00:00 -2.2 6 Norte 8 Nordeste 0 -- -- 99
2021-01-13 18:00:00 -3.1 7 Nordeste 8 Nordeste 0 -- -- 99
2021-01-13 17:00:00 -0.7 4 Norte 9 Nordeste 0 -- -- 95
2021-01-13 16:00:00 1 2 Norte 9 Nordeste 0 -- -- 87
2021-01-13 15:00:00 1.2 4 Norte 13 Nordeste 0 -- -- 87
2021-01-13 14:00:00 0.6 3 Norte 13 Norte 0 -- -- 89
2021-01-13 13:00:00 2.2 3 Este 9 Este 0 -- -- 79
2021-01-13 12:00:00 0.7 5 Este 9 Este 0 -- -- 89
2021-01-13 11:00:00 -1.9 8 Este 9 Este 0 -- -- 96
2021-01-13 10:00:00 -3.8 5 Este 6 Este 0 -- -- 98
2021-01-13 09:00:00 -6.3 5 Sudeste 8 Sur 0 -- -- 97
2021-01-13 08:00:00 -4.1 5 Sudeste 8 Sur 0 -- -- 97
2021-01-13 07:00:00 -3.9 5 Este 7 Sudeste 0 -- -- 97
2021-01-13 06:00:00 -4.9 8 Este 9 Este 0 -- -- 97
2021-01-13 05:00:00 -5.3 8 Este 9 Este 0 -- -- 96
2021-01-13 04:00:00 -4.4 5 Sudeste 9 Sur 0 -- -- 94
2021-01-13 03:00:00 -3.9 5 Sur 9 Sur 0 -- -- 94
2021-01-13 02:00:00 -3.2 7 Sudoeste 9 Sudoeste 0 -- -- 91
2021-01-13 01:00:00 -1.8 8 Sudoeste 10 Sudoeste 0 -- -- 87
2021-01-13 00:00:00 -3.1 9 Sudoeste 10 Sudoeste 0 -- -- 92
2021-01-12 23:00:00 -3 9 Sudoeste 11 Sudoeste 0 -- -- 92
2021-01-12 22:00:00 -3.2 10 Sudoeste 30 Sudoeste 0 -- -- 91
2021-01-12 21:00:00 -2.1 7 Sudoeste 10 Sur 0 -- -- 87
2021-01-12 20:00:00 -1.2 7 Sur 9 Sur 0 -- -- 84
2021-01-12 19:00:00 -1 5 Sudoeste 6 Sudoeste 0 -- -- 81
2021-01-12 18:00:00 1 6 Oeste 12 Oeste 0 -- -- 70
2021-01-12 17:00:00 2.8 8 Oeste 14 Oeste 0 -- -- 66
2021-01-12 16:00:00 3.2 10 Oeste 15 Oeste 0 -- -- 66
2021-01-12 15:00:00 2.5 9 Oeste 14 Noroeste 0 -- -- 68
2021-01-12 14:00:00 1.5 8 Oeste 13 Oeste 0 -- -- 71
2021-01-12 13:00:00 0.8 5 Noroeste 10 Oeste 0 -- -- 75
2021-01-12 12:00:00 0.2 5 Norte 7 Norte 0 -- -- 78
2021-01-12 11:00:00 -0.7 3 Sur 6 Sur 0 -- -- 87
2021-01-12 10:00:00 -5.1 2 Sudoeste 9 Sur 0 -- -- 94
2021-01-12 09:00:00 -5.1 3 Este 8 Nordeste 0 -- -- 93
2021-01-12 08:00:00 -6.3 6 Nordeste 10 Norte 0 -- -- 94
2021-01-12 07:00:00 -4.6 4 Nordeste 6 Noroeste 0 -- -- 94
2021-01-12 06:00:00 -5.7 6 Noroeste 11 Norte 0 -- -- 94
2021-01-12 05:00:00 -5.9 8 Noroeste 12 Noroeste 0 -- -- 94
2021-01-12 04:00:00 -6.1 4 Noroeste 7 Oeste 0 -- -- 94
2021-01-12 03:00:00 -5.1 5 Noroeste 14 Norte 0 -- -- 91
2021-01-12 02:00:00 -4.6 8 Norte 23 Nordeste 0 -- -- 87
2021-01-12 01:00:00 -1.7 19 Nordeste 27 Nordeste 0 -- -- 79
2021-01-12 00:00:00 -2.5 22 Este 29 Nordeste 0 -- -- 81
2021-01-11 23:00:00 -2.2 17 Este 27 Este 0 -- -- 80
2021-01-11 22:00:00 -2.1 9 Este 29 Nordeste 0 -- -- 78
2021-01-11 21:00:00 -1.6 21 Este 31 Este 0 -- -- 77
2021-01-11 20:00:00 -1.5 21 Este 36 Nordeste 0 -- -- 75
2021-01-11 19:00:00 -1 28 Nordeste 51 Este 0 -- -- 73
2021-01-11 18:00:00 -0.3 30 Nordeste 40 Nordeste 0 -- -- 69
2021-01-11 17:00:00 1.1 23 Nordeste 40 Nordeste 0 -- -- 62
2021-01-11 16:00:00 1.6 33 Nordeste 44 Nordeste 0 -- -- 62
2021-01-11 15:00:00 1 19 Nordeste 40 Nordeste 0 -- -- 64
2021-01-11 14:00:00 2.1 28 Este 49 Nordeste 0 -- -- 62
2021-01-11 13:00:00 0.7 30 Nordeste 49 Nordeste 0 -- -- 67
2021-01-11 12:00:00 0.1 24 Nordeste 46 Nordeste 0 -- -- 70
2021-01-11 11:00:00 0 30 Nordeste 44 Nordeste 0 -- -- 71
2021-01-11 10:00:00 -1.1 15 Este 37 Nordeste 0 -- -- 75
2021-01-11 09:00:00 -1.9 24 Nordeste 35 Nordeste 0 -- -- 77
2021-01-11 08:00:00 -1.6 30 Nordeste 41 Este 0 -- -- 76
2021-01-11 07:00:00 -2 25 Nordeste 36 Nordeste 0 -- -- 77
2021-01-11 06:00:00 -1.6 26 Nordeste 42 Este 0 -- -- 77
2021-01-11 05:00:00 -1.5 18 Este 39 Este 0 -- -- 79
2021-01-11 04:00:00 -1.3 24 Este 37 Nordeste 0 -- -- 77
2021-01-11 03:00:00 -1.3 23 Nordeste 33 Nordeste 0 -- -- 76
2021-01-11 02:00:00 -1.8 12 Este 34 Este 0 -- -- 79
2021-01-11 01:00:00 -1.9 20 Nordeste 38 Nordeste 0 -- -- 77
2021-01-11 00:00:00 -1.7 19 Nordeste 66 Nordeste 0 -- -- 74
2021-01-10 23:00:00 -1.1 21 Nordeste 37 Nordeste 0 -- -- 74
2021-01-10 22:00:00 -1.2 19 Nordeste 42 Nordeste 0 -- -- 76
2021-01-10 21:00:00 -1.3 23 Nordeste 45 Nordeste 0 -- -- 73
2021-01-10 20:00:00 -1.3 32 Nordeste 51 Este 0 -- -- 75
2021-01-10 19:00:00 -1.2 30 Nordeste 52 Nordeste 0 -- -- 75
2021-01-10 18:00:00 -1 34 Nordeste 50 Nordeste 0 -- -- 72
2021-01-10 17:00:00 -0.2 33 Nordeste 52 Nordeste 0 -- -- 73
2021-01-10 16:00:00 -0.1 32 Nordeste 49 Nordeste 0 -- -- 74
2021-01-10 15:00:00 0.4 30 Nordeste 45 Nordeste 0 -- -- 72
2021-01-10 14:00:00 0.2 26 Nordeste 50 Nordeste 0 -- -- 76
2021-01-10 13:00:00 0.2 31 Nordeste 46 Nordeste 0 -- -- 78
2021-01-10 12:00:00 -0.1 33 Nordeste 48 Nordeste 0 -- -- 78
2021-01-10 11:00:00 -0.3 35 Nordeste 48 Nordeste 0 -- -- 77
2021-01-10 10:00:00 -1 21 Nordeste 42 Nordeste 0 -- -- 81
2021-01-10 09:00:00 -1.2 27 Nordeste 45 Nordeste 0 -- -- 82
2021-01-10 08:00:00 -1.2 31 Nordeste 44 Nordeste 0 -- -- 85
2021-01-10 07:00:00 -1.3 33 Nordeste 49 Nordeste 0 -- -- 86
2021-01-10 06:00:00 -1.4 29 Nordeste 43 Nordeste 0 -- -- 90
2021-01-10 05:00:00 -1.7 29 Nordeste 45 Nordeste 0 -- -- 91
2021-01-10 04:00:00 -1.8 33 Nordeste 49 Nordeste 0 -- -- 90
2021-01-10 03:00:00 -2.1 30 Nordeste 42 Nordeste 0 -- -- 90
2021-01-10 02:00:00 -2.2 27 Este 42 Este 0 -- -- 89
2021-01-10 01:00:00 -2.6 25 Nordeste 37 Este 0 -- -- 89
2021-01-10 00:00:00 -2.9 29 Este 42 Este 0 -- -- 90
2021-01-09 23:00:00 -3.1 24 Este 41 Este 0 -- -- 91
2021-01-09 22:00:00 -3.2 28 Este 42 Nordeste 0 -- -- 94
2021-01-09 21:00:00 -3.1 30 Nordeste 45 Este 0 -- -- 94
2021-01-09 20:00:00 -3.1 28 Nordeste 51 Este 0 -- -- 94
2021-01-09 19:00:00 -2.8 30 Nordeste 47 Nordeste 0 -- -- 94
2021-01-09 18:00:00 -2.6 35 Nordeste 46 Este 0 -- -- 94
2021-01-09 17:00:00 -2.4 33 Este 45 Nordeste 0 -- -- 94
2021-01-09 16:00:00 -2.5 31 Este 49 Nordeste 0 -- -- 94
2021-01-09 15:00:00 -2.5 30 Nordeste 43 Nordeste 0 -- -- 94
2021-01-09 14:00:00 -2.7 30 Nordeste 54 Nordeste 0 -- -- 94
2021-01-09 13:00:00 -2.7 34 Nordeste 50 Nordeste 0 -- -- 90
2021-01-09 12:00:00 -2.7 33 Nordeste 56 Nordeste 0 -- -- 88
2021-01-09 11:00:00 -2.9 35 Nordeste 51 Nordeste 0 -- -- 91
2021-01-09 10:00:00 -3.3 35 Nordeste 53 Nordeste 0 -- -- 91
2021-01-09 09:00:00 -3.3 31 Nordeste 55 Nordeste 0 -- -- 88
2021-01-09 08:00:00 -3.8 36 Nordeste 53 Nordeste 0 -- -- 93
2021-01-09 07:00:00 -4.2 36 Nordeste 52 Nordeste 0 -- -- 94
2021-01-09 06:00:00 -4.2 33 Nordeste 56 Nordeste 0 -- -- 94
2021-01-09 05:00:00 -4.2 33 Nordeste 51 Este 0 -- -- 93
2021-01-09 04:00:00 -4.1 30 Nordeste 47 Nordeste 0 -- -- 92
2021-01-09 03:00:00 -4.3 27 Nordeste 41 Este 0 -- -- 91
2021-01-09 02:00:00 -4 28 Nordeste 46 Este 0 -- -- 85
2021-01-09 01:00:00 -4 27 Nordeste 40 Nordeste 0 -- -- 83
2021-01-09 00:00:00 -3.5 26 Nordeste 38 Nordeste 0 -- -- 77
2021-01-08 23:00:00 -3.2 21 Nordeste 37 Nordeste 0 -- -- 75
2021-01-08 22:00:00 -3.1 22 Nordeste 37 Nordeste 0 -- -- 77
2021-01-08 21:00:00 -2.9 24 Nordeste 34 Nordeste 0 -- -- 78
2021-01-08 20:00:00 -2.8 20 Nordeste 33 Este 0 -- -- 74
2021-01-08 19:00:00 -2.5 18 Nordeste 42 Este 0 -- -- 69
2021-01-08 18:00:00 -1.8 24 Este 41 Este 0 -- -- 63
2021-01-08 17:00:00 -1.1 30 Este 43 Este 0 -- -- 59
2021-01-08 16:00:00 -0.3 27 Este 45 Nordeste 0 -- -- 56
2021-01-08 15:00:00 0 30 Nordeste 40 Este 0 -- -- 56
2021-01-08 14:00:00 0.1 29 Nordeste 39 Nordeste 0 -- -- 57
2021-01-08 13:00:00 0 24 Nordeste 35 Este 0 -- -- 64
2021-01-08 12:00:00 -1.3 27 Nordeste 39 Este 0 -- -- 71
2021-01-08 11:00:00 -2.8 27 Este 42 Este 0 -- -- 76
2021-01-08 10:00:00 -4.8 16 Este 30 Nordeste 0 -- -- 85
2021-01-08 09:00:00 -5.6 22 Nordeste 29 Este 0 -- -- 86
2021-01-08 08:00:00 -5.6 22 Este 32 Este 0 -- -- 85
2021-01-08 07:00:00 -5.4 23 Este 37 Este 0 -- -- 83
2021-01-08 06:00:00 -4.8 28 Este 40 Este 0 -- -- 81
2021-01-08 05:00:00 -4.1 32 Este 42 Este 0 -- -- 82
2021-01-08 04:00:00 -3.8 28 Este 48 Este 0 -- -- 83
2021-01-08 03:00:00 -4.2 24 Nordeste 31 Nordeste 0 -- -- 85
2021-01-08 02:00:00 -4.7 20 Este 31 Este 0 -- -- 85
2021-01-08 01:00:00 -4.6 20 Este 26 Nordeste 0 -- -- 86
2021-01-08 00:00:00 -4.4 17 Nordeste 24 Este 0 -- -- 83
2021-01-07 23:00:00 -3.9 17 Nordeste 26 Este 0 -- -- 80
2021-01-07 22:00:00 -3.6 20 Nordeste 24 Nordeste 0 -- -- 77
2021-01-07 21:00:00 -4 15 Este 23 Nordeste 0 -- -- 76
2021-01-07 20:00:00 -2.8 16 Nordeste 22 Nordeste 0 -- -- 71
2021-01-07 19:00:00 -2.1 16 Nordeste 24 Nordeste 0 -- -- 65
2021-01-07 18:00:00 -0.5 15 Nordeste 21 Nordeste 0 -- -- 59
2021-01-07 17:00:00 1.9 15 Este 20 Este 0 -- -- 51
2021-01-07 16:00:00 2.8 14 Nordeste 21 Este 0 -- -- 49
2021-01-07 15:00:00 3.1 12 Este 24 Este 0 -- -- 45
2021-01-07 14:00:00 2.7 14 Este 24 Este 0 -- -- 50
2021-01-07 13:00:00 1.1 13 Este 19 Este 0 -- -- 61
2021-01-07 12:00:00 -0.5 13 Este 19 Este 0 -- -- 77
2021-01-07 11:00:00 -2.9 17 Este 21 Este 0 -- -- 85
2021-01-07 10:00:00 -5.4 14 Este 17 Este 0 -- -- 94
2021-01-07 09:00:00 -7.5 12 Este 14 Nordeste 0 -- -- 93
2021-01-07 08:00:00 -6.7 13 Este 14 Este 0 -- -- 92
2021-01-07 07:00:00 -6.6 11 Este 14 Este 0 -- -- 89
2021-01-07 06:00:00 -6.5 10 Este 14 Este 0 -- -- 88
2021-01-07 05:00:00 -6.5 12 Este 14 Este 0 -- -- 88
2021-01-07 04:00:00 -6.8 9 Este 12 Este 0 -- -- 87
2021-01-07 03:00:00 -6.3 10 Este 14 Este 0 -- -- 87
2021-01-07 02:00:00 -5.5 11 Este 14 Este 0 -- -- 90
2021-01-07 01:00:00 -5.1 8 Este 13 Nordeste 0 -- -- 87
2021-01-07 00:00:00 -4.9 8 Este 12 Este 0 -- -- 84
2021-01-06 23:00:00 -4.6 9 Este 11 Este 0 -- -- 85
2021-01-06 22:00:00 -4 7 Este 10 Este 0 -- -- 82
2021-01-06 21:00:00 -2.8 7 Este 9 Este 0 -- -- 78
2021-01-06 20:00:00 -1.9 5 Este 9 Este 0 -- -- 78
2021-01-06 19:00:00 -1 6 Este 9 Nordeste 0 -- -- 72
2021-01-06 18:00:00 0.2 8 Nordeste 12 Nordeste 0 -- -- 68
2021-01-06 17:00:00 2.1 9 Este 14 Este 0 -- -- 61
2021-01-06 16:00:00 4.4 3 Norte 11 Este 0 -- -- 48
2021-01-06 15:00:00 2.1 4 Sudeste 9 Sudeste 0 -- -- 54
2021-01-06 14:00:00 3.8 4 Sudeste 9 Sur 0 -- -- 56
2021-01-06 13:00:00 3.5 2 Oeste 7 Sudeste 0 -- -- 60
2021-01-06 12:00:00 1.4 3 Sur 9 Sudeste 0 -- -- 74
2021-01-06 11:00:00 -1 5 Este 9 Este 0 -- -- 90
2021-01-06 10:00:00 -3.4 6 Este 12 Nordeste 0 -- -- 94
2021-01-06 09:00:00 -3.8 0 Calma 13 Nordeste 0 -- -- 93
2021-01-06 08:00:00 -3.5 0 Calma 6 Este 0 -- -- 93
2021-01-06 07:00:00 -4.1 3 Sudeste 10 Sudeste 0 -- -- 92
2021-01-06 06:00:00 -4 7 Sudeste 10 Sudeste 0 -- -- 91
2021-01-06 05:00:00 -3.5 4 Sudeste 7 Este 0 -- -- 88
2021-01-06 04:00:00 -3.5 5 Sur 9 Sudeste 0 -- -- 90
2021-01-06 03:00:00 -3.5 5 Este 10 Sudeste 0 -- -- 87
2021-01-06 02:00:00 -3.4 6 Sur 10 Sur 0 -- -- 82
2021-01-06 01:00:00 -3.2 4 Este 7 Norte 0 -- -- 82
2021-01-06 00:00:00 -2.6 5 Noroeste 8 Noroeste 0 -- -- 83
2021-01-05 23:00:00 -2.9 4 Oeste 11 Sur 0 -- -- 81
2021-01-05 22:00:00 -2.9 10 Sudoeste 12 Sudoeste 0 -- -- 80
2021-01-05 21:00:00 -1.6 10 Sudoeste 11 Sudoeste 0 -- -- 76
2021-01-05 20:00:00 -1.1 8 Sudoeste 9 Sudoeste 0 -- -- 74
2021-01-05 19:00:00 -1.4 7 Sudoeste 8 Oeste 0 -- -- 72
2021-01-05 18:00:00 0.2 6 Oeste 11 Oeste 0 -- -- 66
2021-01-05 17:00:00 2.7 9 Oeste 13 Oeste 0 -- -- 58
2021-01-05 16:00:00 2.8 10 Oeste 16 Oeste 0 -- -- 58
2021-01-05 15:00:00 2.8 9 Oeste 15 Oeste 0 -- -- 62
2021-01-05 14:00:00 1.7 8 Oeste 14 Oeste 0 -- -- 66
2021-01-05 13:00:00 1.4 8 Oeste 14 Oeste 0 -- -- 70
2021-01-05 12:00:00 -0.7 8 Oeste 16 Sudoeste 0 -- -- 79
2021-01-05 11:00:00 -2.8 11 Sudoeste 14 Sudoeste 0 -- -- 89
2021-01-05 10:00:00 -5.5 8 Sudoeste 13 Oeste 0 -- -- 91
2021-01-05 09:00:00 -6.1 12 Oeste 16 Oeste 0 -- -- 89
2021-01-05 08:00:00 -5.8 14 Oeste 17 Oeste 0 -- -- 88
2021-01-05 07:00:00 -5.8 13 Oeste 15 Oeste 0 -- -- 89
2021-01-05 06:00:00 -6.4 15 Oeste 16 Oeste 0 -- -- 90
2021-01-05 05:00:00 -7.1 12 Oeste 13 Oeste 0 -- -- 90
2021-01-05 04:00:00 -6.1 14 Oeste 17 Oeste 0 -- -- 89
2021-01-05 03:00:00 -5.7 12 Oeste 15 Oeste 0 -- -- 89
2021-01-05 02:00:00 -6 11 Oeste 34 Oeste 0 -- -- 88
2021-01-05 01:00:00 -5.4 9 Oeste 13 Noroeste 0 -- -- 89
2021-01-05 00:00:00 -3.8 4 Noroeste 8 Noroeste 0 -- -- 90
2021-01-04 23:00:00 -4.6 5 Oeste 15 Noroeste 0 -- -- 88
2021-01-04 22:00:00 -3.1 3 Oeste 9 Oeste 0 -- -- 83
2021-01-04 21:00:00 -3.4 10 Oeste 13 Noroeste 0 -- -- 82
2021-01-04 20:00:00 -2 7 Noroeste 9 Noroeste 0 -- -- 82
2021-01-04 19:00:00 -1.7 5 Oeste 9 Oeste 0 -- -- 86
2021-01-04 18:00:00 -1.6 6 Oeste 23 Oeste 0 -- -- 86
2021-01-04 17:00:00 0.4 19 Noroeste 29 Noroeste 0 -- -- 72
2021-01-04 16:00:00 2.6 20 Noroeste 30 Oeste 0 -- -- 57
2021-01-04 15:00:00 3.1 21 Noroeste 29 Oeste 0 -- -- 61
2021-01-04 14:00:00 1.8 20 Oeste 30 Oeste 0 -- -- 70
2021-01-04 13:00:00 1 21 Oeste 30 Noroeste 0 -- -- 76
2021-01-04 12:00:00 0 22 Oeste 32 Oeste 0 -- -- 78
2021-01-04 11:00:00 -1.3 25 Oeste 34 Oeste 0 -- -- 81
2021-01-04 10:00:00 -2.4 19 Oeste 32 Oeste 0 -- -- 83
2021-01-04 09:00:00 -3.7 21 Oeste 30 Oeste 0 -- -- 85
2021-01-04 08:00:00 -3.5 21 Oeste 29 Oeste 0 -- -- 84
2021-01-04 07:00:00 -3.6 18 Oeste 25 Oeste 0 -- -- 87
2021-01-04 06:00:00 -3.5 16 Oeste 27 Oeste 0 -- -- 88
2021-01-04 05:00:00 -3.6 17 Oeste 28 Oeste 0 -- -- 92
2021-01-04 04:00:00 -3.4 19 Oeste 27 Oeste 0 -- -- 94
2021-01-04 03:00:00 -3 22 Oeste 28 Oeste 0 -- -- 94
2021-01-04 02:00:00 -3.4 16 Oeste 25 Oeste 0 -- -- 93
2021-01-04 01:00:00 -2.6 16 Oeste 22 Oeste 0 -- -- 91
2021-01-04 00:00:00 -2.1 17 Oeste 30 Oeste 0 -- -- 89
2021-01-03 23:00:00 -1.6 21 Oeste 30 Oeste 0 -- -- 89
2021-01-03 22:00:00 -1.1 18 Oeste 31 Oeste 0 -- -- 87
2021-01-03 21:00:00 -1.3 14 Oeste 26 Oeste 0 -- -- 84
2021-01-03 20:00:00 0.5 18 Oeste 29 Noroeste 0 -- -- 74
2021-01-03 19:00:00 1.1 21 Oeste 31 Oeste 0 -- -- 74
2021-01-03 18:00:00 1.2 17 Oeste 34 Oeste 0 -- -- 78
2021-01-03 17:00:00 2.4 24 Oeste 42 Oeste 0 -- -- 67
2021-01-03 16:00:00 3.8 31 Oeste 43 Oeste 0 -- -- 61
2021-01-03 15:00:00 3.6 27 Oeste 37 Oeste 0 -- -- 63
2021-01-03 14:00:00 2.4 27 Oeste 39 Oeste 0 -- -- 69
2021-01-03 13:00:00 1.7 27 Oeste 37 Oeste 0 -- -- 75
2021-01-03 12:00:00 0 23 Oeste 32 Oeste 0 -- -- 78
2021-01-03 11:00:00 -0.8 15 Oeste 22 Oeste 0 -- -- 84
2021-01-03 10:00:00 -2.4 18 Oeste 26 Oeste 0 -- -- 90
2021-01-03 09:00:00 -3.3 16 Oeste 20 Oeste 0 -- -- 94
2021-01-03 08:00:00 -3.8 14 Oeste 24 Oeste 0 -- -- 94
2021-01-03 07:00:00 -4.2 16 Oeste 21 Oeste 0 -- -- 94
2021-01-03 06:00:00 -4.6 12 Oeste 17 Oeste 0 -- -- 93
2021-01-03 05:00:00 -4.5 12 Oeste 18 Oeste 0 -- -- 92
2021-01-03 04:00:00 -4 15 Noroeste 20 Noroeste 0 -- -- 91
2021-01-03 03:00:00 -4 16 Oeste 21 Oeste 0 -- -- 90
2021-01-03 02:00:00 -3.7 17 Oeste 21 Oeste 0 -- -- 88
2021-01-03 01:00:00 -3.2 15 Oeste 19 Oeste 0 -- -- 86
2021-01-03 00:00:00 -3.6 11 Oeste 15 Oeste 0 -- -- 87
2021-01-02 23:00:00 -4.1 5 Sudoeste 10 Sur 0 -- -- 88
2021-01-02 22:00:00 -3.1 5 Sur 10 Sudoeste 0 -- -- 88
2021-01-02 21:00:00 -2.6 4 Sudeste 8 Sudeste 0 -- -- 84
2021-01-02 20:00:00 -2.6 7 Este 9 Este 0 -- -- 83
2021-01-02 19:00:00 -1.6 4 Este 35 Este 0 -- -- 80
2021-01-02 18:00:00 0 9 Nordeste 14 Nordeste 0 -- -- 60
2021-01-02 17:00:00 1.1 8 Norte 13 Norte 0 -- -- 54
2021-01-02 16:00:00 2 10 Noroeste 26 Norte 0 -- -- 48
2021-01-02 15:00:00 2.7 11 Oeste 17 Noroeste 0 -- -- 54
2021-01-02 14:00:00 1.2 10 Noroeste 19 Noroeste 0 -- -- 65